Starlink 11402

operational
NORAD ID: 61874 Int'l Des: 2024-204 Owner: SPXS Country: US Constellation: starlink
LEOCIRCULAR

About Starlink 11402

Description loading...

Live Position

Loading 3D Globe...

Upcoming Passes

Altitude History

Altitude vs Time

uPlot chart will show altitude changes over time

Two-Line Element Set

1 61874U 24204A 25303.19081657 -.00001260 00000-0 -55259-5 0 9990
2 61874 53.1590 279.9426 0001994 59.0345 301.0869 15.69713375 57005
Epoch: Oct 30, 2025 • Age: 24 hours

Current Status

Altitude 368.0 km
Velocity 7.69 km/s
Sub-Earth Point -24.58°S, 9.31°E
Launch Date Nov 9, 2024
Age 0.9 years
Type internet

Technical Details

Classification Payload
Mass 960.00 kg
Dry Mass 910.00 kg
Total Mass 960.00 kg
Length 0.30 m
Diameter 4.10 m
Span 29.00 m
Shape Box + pan
Manufacturer SPXS
Bus Type Starlink V2MD
Phase Status In Orbit
Owner/State SPXS/US

Large Constellations

Loading constellations...